Header for Extended Forecast Station List Page

Search by: ID | Name | Date | Parm | Value | Avg | % Avg
Sort by: ID | Name | Date | Parm | Value | Avg | % Avg

Enter search or view all records.

Click on id for station plot
#IDNameDateParmValueAvg% Avg
0ABOM8CLARK FORK-ABOVE MISSOULA05-13-2024DISCHARGE (KAF)47899748
1AFRI1SNAKE-AMERICAN FALLS RESERVOIR05-13-2024INFLOW (KAF)20021533131
2ALFW1PEND OREILLE-ALBENI FALLS DAM05-13-2024INFLOW (KAF)5394788568
3ALPW4SNAKE-NEAR ALPINE05-13-2024DISCHARGE (KAF)20911910109
4ANAW1SNAKE-NEAR ANATONE05-13-2024DISCHARGE (KAF)8119917788
5ANTI1HENRYS FORK-AT ST. ANTHONY05-13-2024DISCHARGE (KAF)35946977
6ARAI1SF BOISE-ANDERSON RANCH DAM05-13-2024INFLOW (KAF)18726970
7ARDW1ENTIAT-NEAR ARDENVOIR05-13-2024DISCHARGE (KAF)12315679
8BELM8CLARK FORK-BELOW MISSOULA05-13-2024DISCHARGE (KAF)1070191756
9BERO3MALHEUR-AGENCY VALLEY DAM05-13-2024INFLOW (KAF)202484
10BFEI1KOOTENAI-AT BONNERS FERRY05-13-2024STAGE (FT)MMM
11BFTI1SNAKE-NEAR BLACKFOOT05-13-2024DISCHARGE (KAF)14251002142
12BIGI1BOISE-AT GLENWOOD BRIDGE05-13-2024DISCHARGE (KAF)315269117
13BITM8BITTERROOT-NEAR MISSOULA05-13-2024DISCHARGE (KAF)59288367
14BONM8BLACKFOOT-NEAR BONNER05-13-2024DISCHARGE (KAF)24754845
15BONO3COLUMBIA-BONNEVILLE DAM05-13-2024INFLOW (KAF)392964990979
16BRNI1SNAKE-BROWNLEE DAM05-13-2024INFLOW (KAF)36133358108
17BUDW1BUMPING-BUMPING LAKE DAM05-13-2024INFLOW (KAF)677688
18BULO3BULLY CREEK-BULLY CREEK DAM05-13-2024INFLOW (KAF)1MM
19CABI1CLARK FORK-CABINET GORGE DAM05-13-2024INFLOW (KAF)4841729866
20CFMM8FLATHEAD-AT COLUMBIA FALLS05-13-2024DISCHARGE (KAF)2820336184
21CHDW1CHELAN-LAKE CHELAN DAM05-13-2024INFLOW (KAF)49879762
22CHEI1FALL RIVER-NEAR CHESTER05-13-2024DISCHARGE (KAF)19524380
23CHJW1COLUMBIA-CHIEF JOSEPH DAM05-13-2024INFLOW (KAF)224192853479
24CIBW1COLUMBIA-AT INTL BOUNDARY05-13-2024DISCHARGE (KAF)225422966376
25CLFW1NACHES-NEAR CLIFFDEL05-13-2024DISCHARGE (KAF)20725382
26CLUW1CLE ELUM-CLE ELUM LAKE05-13-2024INFLOW (KAF)18225671
27COEI1COEUR D ALENE-COEUR D ALENE LAKE05-13-2024INFLOW (KAF)553108751
28CSDI1NF PAYETTE-CASCADE DAM05-13-2024INFLOW (KAF)25429387
29DEDI1DEADWOOD-NEAR LOWMAN05-13-2024INFLOW (KAF)708582
30DLGM8CLARK FORK-AT DEER LODGE05-13-2024DISCHARGE (KAF)176128
31DRMM8CLARK FORK-NR DRUMMOND05-13-2024DISCHARGE (KAF)7517942
32DWRI1NF CLEARWATER-DWORSHAK DAM05-13-2024INFLOW (KAF)978143168
33EASW1YAKIMA-AT EASTON05-13-2024DISCHARGE (KAF)758490
34EMMI1PAYETTE-NEAR EMMETT05-13-2024DISCHARGE (KAF)64285575
35FCFM8NF FLATHEAD-NEAR COLUMBIA FALLS05-13-2024DISCHARGE (KAF)883121673
36GCDW1COLUMBIA-GRAND COULEE DAM05-13-2024INFLOW (KAF)239952996380
37GIBO3UMATILLA-NEAR GIBBON05-13-2024DISCHARGE (KAF)252790
38HALI1BIG WOOD-AT HAILEY05-13-2024DISCHARGE (KAF)157156101
39HEII1SNAKE-NEAR HEISE05-13-2024DISCHARGE (KAF)31492914108
40HHWM8SF FLATHEAD-HUNGRY HORSE DAM05-13-2024INFLOW (KAF)1016135775
41HODO3HOOD-NEAR TUCKER BRIDGE05-13-2024DISCHARGE (KAF)13113696
42HOPI1PEND OREILLE-LAKE PEND OREILLE NR HOPE05-13-2024LAKE ELEVATION (FT)MMM
43HOTI1BRUNEAU-NEAR HOT SPRINGS05-13-2024DISCHARGE (KAF)939993
44HWRI1BIG LOST-AT HOWELL RANCH NEAR CHILLY05-13-2024DISCHARGE (KAF)161122132
45IHDW1SNAKE-ICE HARBOR DAM05-13-2024INFLOW (KAF)121551430385
46IPDI1HENRYS FORK-ISLAND PARK DAM05-13-2024INFLOW (KAF)14316885
47JDAO3COLUMBIA-JOHN DAY DAM05-13-2024INFLOW (KAF)382994818179
48JKSW4SNAKE-NEAR JACKSON05-13-2024DISCHARGE (KAF)17111557110
49JLKW4SNAKE-JACKSON LAKE AT DAM05-13-2024INFLOW (KAF)623605103
50KADW1KACHESS-KACHESS DAM05-13-2024INFLOW (KAF)365861
51KEDW1YAKIMA-KEECHELUS LAKE05-13-2024INFLOW (KAF)466868
52KERM8FLATHEAD-SELI’Š KSANKA QLISPE’ DAM05-13-2024INFLOW (KAF)3147403678
53KIOW1YAKIMA-AT KIONA05-13-2024DISCHARGE (KAF)46858580
54LAUW1KETTLE-AT LAURIER05-13-2024DISCHARGE (KAF)680116558
55LEOI1KOOTENAI-AT LEONIA05-13-2024DISCHARGE (KAF)3386398585
56LGDW1SNAKE-LOWER GRANITE DAM05-13-2024INFLOW (KAF)121181434185
57LGSW1SNAKE-LITTLE GOOSE DAM05-13-2024INFLOW (KAF)120841431884
58LLKW1SPOKANE-AT LONGLAKE05-13-2024INFLOW (KAF)727139252
59LMNW1SNAKE-LOWER MONUMENTAL DAM05-13-2024INFLOW (KAF)121061429685
60LUCI1BOISE-LUCKY PEAK DAM05-13-2024INFLOW (KAF)89196293
61LWRI1LITTLE WOOD-LITTLE WOOD DAM05-13-2024INFLOW (KAF)353696
62LYDM8KOOTENAI-LIBBY DAM05-13-2024INFLOW (KAF)4097479685
63MACI1BIG LOST-MACKAY RESERVOIR NEAR MACKAY05-13-2024INFLOW (KAF)14392155
64MAGI1BIG WOOD-MAGIC DAM05-13-2024INFLOW (KAF)105105101
65MCDW1COLUMBIA-MCNARY DAM05-13-2024INFLOW (KAF)372604810677
66MILI1SNAKE-AT MILNER05-13-2024DISCHARGE (KAF)35348729
67MODO3DESCHUTES-AT MOODY NR BIGGS05-13-2024DISCHARGE (KAF)1125115098
68MONO3NF JOHN DAY-AT MONUMENT05-13-2024DISCHARGE (KAF)16121575
69MYKO3MCKAY CREEK-NEAR PILOT ROCK05-13-2024DISCHARGE (KAF)3566
70NACW1NACHES-NEAR NACHES05-13-2024DISCHARGE (KAF)34438390
71NOXM8CLARK FORK-NOXON RAPIDS DAM05-13-2024INFLOW (KAF)4424665666
72ORFI1CLEARWATER-AT OROFINO05-13-2024DISCHARGE (KAF)2243278181
73OWYO3OWYHEE-OWYHEE DAM05-13-2024INFLOW (KAF)173109159
74PARI1BOISE-NEAR PARMA05-13-2024DISCHARGE (KAF)284233122
75PARW1YAKIMA-NEAR PARKER05-13-2024DISCHARGE (KAF)16531952
76PATW1METHOW-NEAR PATEROS05-13-2024DISCHARGE (KAF)41864565
77PDTO3UMATILLA-AT PENDLETON05-13-2024DISCHARGE (KAF)394292
78PESW1WENATCHEE-AT PESHASTIN05-13-2024DISCHARGE (KAF)83999884
79PIHI1PORTNEUF-AT POCATELLO05-13-2024DISCHARGE (KAF)6127222
80PITW1KLICKITAT-NEAR PITT05-13-2024DISCHARGE (KAF)29931296
81PLDI1SF SNAKE-PALISADES DAM05-13-2024INFLOW (KAF)29032521115
82PRTI1PRIEST-NEAR PRIEST RIVER05-13-2024DISCHARGE (KAF)28849758
83PRWW1COLUMBIA-PRIEST RAPIDS DAM05-13-2024INFLOW (KAF)245333252075
84RCCM8ROCK CREEK-NEAR CLINTON05-13-2024DISCHARGE (KAF)13720666
85REXI1HENRYS FORK-AT REXBURG05-13-2024DISCHARGE (KAF)47654288
86RIDI1WILLOW CREEK-RIRIE DAM05-13-2024INFLOW (KAF)4118226
87RILW1TIETON-RIMROCK LAKE NEAR RIMROCK05-13-2024INFLOW (KAF)12614786
88RRHW1COLUMBIA-ROCKY REACH DAM05-13-2024INFLOW (KAF)237273139876
89SATI1ST MARIES-NEAR SANTA05-13-2024DISCHARGE (KAF)244750
90SERO3JOHN DAY-AT SERVICE CK05-13-2024DISCHARGE (KAF)25830983
91SHYI1SNAKE-NEAR SHELLEY05-13-2024DISCHARGE (KAF)20361712119
92SIFI1SNAKE-AB EAGLE ROCK NR IDAHO FALLS05-13-2024DISCHARGE (KAF)22311914117
93SJMI1ST JOE-AT ST MARIES05-13-2024STAGE (FT)MMM
94SNAI1SNAKE-AT BLACKFOOT05-13-2024DISCHARGE (KAF)14031039135
95SPDI1CLEARWATER-AT SPALDING05-13-2024DISCHARGE (KAF)4019482483
96SPOW1SPOKANE-AT SPOKANE05-13-2024DISCHARGE (KAF)582119749
97SRGM8CLARK FORK-AT ST REGIS05-13-2024DISCHARGE (KAF)1457249858
98STRM8ST. REGIS-NEAR ST. REGIS05-13-2024DISCHARGE (KAF)10415070
99SWAI1SNAKE-BELOW SWAN FALLS05-13-2024DISCHARGE (KAF)20301667122
100TCHW1WALLA WALLA-NEAR TOUCHET05-13-2024DISCHARGE (KAF)264261
101TDAO3COLUMBIA-THE DALLES DAM05-13-2024INFLOW (KAF)386514837880
102TEAI1TETON-NEAR ST. ANTHONY05-13-2024DISCHARGE (KAF)381319119
103TNAW1TEANAWAY-BELOW FORKS05-13-2024DISCHARGE (KAF)405573
104TONW1OKANOGAN-NEAR TONASKET05-13-2024DISCHARGE (KAF)469116640
105TRYO3GRANDE RONDE-TROY05-13-2024DISCHARGE (KAF)43071960
106UMAO3UMATILLA-NEAR UMATILLA05-13-2024DISCHARGE (KAF)323884
107UMTW1YAKIMA-AT UMTANUM05-13-2024DISCHARGE (KAF)64282178
108UNDW1WHITE SALMON-NEAR UNDERWOOD05-13-2024DISCHARGE (KAF)19422686
109WANW1COLUMBIA-WANAPUM DAM05-13-2024INFLOW (KAF)245823241576
110WEII1SNAKE-AT WEISER05-13-2024DISCHARGE (KAF)33803062110
111WELW1COLUMBIA-WELLS DAM05-13-2024INFLOW (KAF)233263050176
112WGCM8MF FLATHEAD-NEAR WEST GLACIER05-13-2024DISCHARGE (KAF)935115281
113WHBI1SALMON-AT WHITEBIRD05-13-2024DISCHARGE (KAF)3838420291
114WRMO3MALHEUR-WARM SPRINGS DAM05-13-2024INFLOW (KAF)1815120
115WSRI1WEISER-NEAR WEISER05-13-2024DISCHARGE (KAF)171170101